Powrót do katalogu

STARLINK-31992

AktywnyŁącznośćVLEO
NORAD 60023·PAYLOAD·🇺🇸 United States

Wystrzelony Jun 8, 2024 z Cape Canaveral Space Force Station

Loading…

Następne Przeloty (najbliższe 24 godziny)

TLE

ŚwieżeSource: CelesTrak SupGP

Epoka: Sep 14, 2026, 22:20 UTC

1 60023C 24111H   26257.93104167  .00053055  00000+0  15689-2 0  2578
2 60023  53.1570 275.4212 0001457 100.0692 278.3119 15.34335975    19

Śledź STARLINK-31992 w czasie rzeczywistym z AllMySat

Download on the App Store